PU1CMA-13 Weather Reports


time (UTC)temp
C
wind
direction
speed
KPH
gust
KPH
rain 1hr
cm
rain 24hr
cm
rain mn
cm
humidity
%
barometer
mb
20260510054134 -17 0.0 0.0 0.00 0.00 0.00 77 1012.1
20260510052713 -17 0.0 0.0 0.00 0.00 0.00 76 1012.1
20260510051252 -17 0.0 0.0 0.00 0.00 0.00 76 1012.3
20260510045830 -17 0.0 0.0 0.00 0.00 0.00 77 1012.4
20260510044409 -17 0.0 0.0 0.00 0.00 0.00 77 1012.4
20260510041530 -17 0.0 0.0 0.00 0.00 0.00 77 1012.7
20260510033236 -17 0.0 0.0 0.00 0.00 0.00 76 1013.0
20260510031819 -17 0.0 0.0 0.00 0.00 0.00 77 1013.1
20260510024935 -17 0.0 0.0 0.00 0.00 0.00 77 1013.4
20260510023514 -17 0.0 0.0 0.00 0.00 0.00 78 1013.4
20260510020632 -17 0.0 0.0 0.00 0.00 0.00 78 1013.5
20260510015210 -17 0.0 0.0 0.00 0.00 0.00 77 1013.4
20260510013748 -17 0.0 0.0 0.00 0.00 0.00 77 1013.5
20260510012327 -17 0.0 0.0 0.00 0.00 0.00 77 1013.5
20260510010904 -17 0.0 0.0 0.00 0.00 0.00 77 1013.6
20260510005443 -17 0.0 0.0 0.00 0.00 0.00 76 1013.6
20260510004022 -17 0.0 0.0 0.00 0.00 0.00 76 1013.5
20260510002559 -17 0.0 0.0 0.00 0.00 0.00 77 1013.4
20260510001138 -17 0.0 0.0 0.00 0.00 0.00 78 1013.5
20260509234258 -17 0.0 0.0 0.00 0.00 0.00 78 1013.6
20260509232840 -17 0.0 0.0 0.00 0.00 0.00 77 1013.6
20260509231420 -17 0.0 0.0 0.00 0.00 0.00 76 1013.5
20260509225958 -17 0.0 0.0 0.00 0.00 0.00 75 1013.4
20260509224538 -17 0.0 0.0 0.00 0.00 0.00 74 1013.2
20260509223118 -17 0.0 0.0 0.00 0.00 0.00 73 1013.1
20260509221706 -17 0.0 0.0 0.00 0.00 0.00 72 1012.9
20260509220250 -17 0.0 0.0 0.00 0.00 0.00 70 1012.9
20260509214825 -17 0.0 0.0 0.00 0.00 0.00 69 1012.7
20260509213417 -17 0.0 0.0 0.00 0.00 0.00 68 1012.6
20260509211949 -17 0.0 0.0 0.00 0.00 0.00 68 1012.3
20260509210535 -17 0.0 0.0 0.00 0.00 0.00 67 1012.3
20260509205119 -17 0.0 0.0 0.00 0.00 0.00 65 1012.1
20260509203653 -17 0.0 0.0 0.00 0.00 0.00 62 1012.0
20260509200816 -17 0.0 0.0 0.00 0.00 0.00 56 1011.9
20260509195355 -17 0.0 0.0 0.00 0.00 0.00 54 1011.9
20260509193941 -17 0.0 0.0 0.00 0.00 0.00 52 1012.0
20260509192537 -17 0.0 0.0 0.00 0.00 0.00 50 1012.0
20260509191118 -17 0.0 0.0 0.00 0.00 0.00 50 1011.9
20260509185700 -17 0.0 0.0 0.00 0.00 0.00 51 1011.9
20260509184240 -17 0.0 0.0 0.00 0.00 0.00 52 1012.0
20260509182811 -17 0.0 0.0 0.00 0.00 0.00 52 1012.0
20260509181354 -17 0.0 0.0 0.00 0.00 0.00 49 1012.0
20260509175931 -17 0.0 0.0 0.00 0.00 0.00 52 1012.0
20260509174503 -17 0.0 0.0 0.00 0.00 0.00 54 1011.8
20260509173044 -17 0.0 0.0 0.00 0.00 0.00 51 1011.9
20260509171636 -17 0.0 0.0 0.00 0.00 0.00 52 1011.9
20260509170207 -17 0.0 0.0 0.00 0.00 0.00 54 1011.9
20260509164746 -17 0.0 0.0 0.00 0.00 0.00 55 1012.0
20260509163326 -17 0.0 0.0 0.00 0.00 0.00 56 1012.0
20260509161918 -17 0.0 0.0 0.00 0.00 0.00 53 1012.2
20260509155039 -17 0.0 0.0 0.00 0.00 0.00 56 1012.7
20260509153611 -17 0.0 0.0 0.00 0.00 0.00 62 1012.7
20260509152144 -17 0.0 0.0 0.00 0.00 0.00 64 1012.8
20260509150733 -17 0.0 0.0 0.00 0.00 0.00 62 1013.1
20260509145320 -17 0.0 0.0 0.00 0.00 0.00 61 1013.1
20260509143853 -17 0.0 0.0 0.00 0.00 0.00 58 1013.4
20260509142444 -17 0.0 0.0 0.00 0.00 0.00 58 1013.6
20260509141016 -17 0.0 0.0 0.00 0.00 0.00 59 1013.8
20260509135550 -17 0.0 0.0 0.00 0.00 0.00 67 1013.9
20260509134126 -17 0.0 0.0 0.00 0.00 0.00 68 1014.0
20260509132703 -17 0.0 0.0 0.00 0.00 0.00 69 1014.1
20260509131243 -17 0.0 0.0 0.00 0.00 0.00 68 1014.2
20260509125834 -17 0.0 0.0 0.00 0.00 0.00 70 1014.2
20260509124415 -17 0.0 0.0 0.00 0.00 0.00 71 1014.3
20260509122958 -17 0.0 0.0 0.00 0.00 0.00 72 1014.3
20260509121542 -17 0.0 0.0 0.00 0.00 0.00 74 1014.3
20260509120112 -17 0.0 0.0 0.00 0.00 0.00 78 1014.3
20260509114648 -17 0.0 0.0 0.00 0.00 0.00 82 1014.3
20260509113224 -17 0.0 0.0 0.00 0.00 0.00 84 1014.1
20260509111801 -17 0.0 0.0 0.00 0.00 0.00 90 1014.0
20260509110339 -17 0.0 0.0 0.00 0.00 0.00 94 1013.8
20260509104918 -17 0.0 0.0 0.00 0.00 0.00 94 1013.8
20260509103455 -17 0.0 0.0 0.00 0.00 0.00 92 1013.6
20260509102033 -17 0.0 0.0 0.00 0.00 0.00 91 1013.5
20260509100611 -17 0.0 0.0 0.00 0.00 0.00 89 1013.4
20260509093728 -17 0.0 0.0 0.00 0.00 0.00 86 1013.1
20260509092307 -17 0.0 0.0 0.00 0.00 0.00 83 1012.9
20260509090844 -17 0.0 0.0 0.00 0.00 0.00 84 1012.7
20260509085423 -17 0.0 0.0 0.00 0.00 0.00 84 1012.4
20260509084001 -17 0.0 0.0 0.00 0.00 0.00 84 1012.3
20260509082539 -17 0.0 0.0 0.00 0.00 0.00 84 1012.1
20260509081117 -17 0.0 0.0 0.00 0.00 0.00 83 1012.0
20260509075654 -17 0.0 0.0 0.00 0.00 0.00 83 1011.8
20260509074231 -17 0.0 0.0 0.00 0.00 0.00 83 1011.6
20260509072810 -17 0.0 0.0 0.00 0.00 0.00 81 1011.6
20260509071348 -17 0.0 0.0 0.00 0.00 0.00 80 1011.3
20260509065927 -17 0.0 0.0 0.00 0.00 0.00 81 1011.2
20260509064505 -17 0.0 0.0 0.00 0.00 0.00 82 1011.4
20260509063043 -17 0.0 0.0 0.00 0.00 0.00 80 1011.4
20260509061622 -17 0.0 0.0 0.00 0.00 0.00 80 1011.4
20260509060211 -17 0.0 0.0 0.00 0.00 0.00 81 1011.4